Overview Statistics Trail Chart Weather Telemetry Raw packets
 

This is the latest recevied weather packets stored in our database for station/object K2CAT. If no packets are shown the sender has not sent any weather packets the latest 10 day(s).

<< 88 89 90 91 92 93 94 >>
Time Temp. Humidity Pressure Rain* Wind** Luminosity Snow
1777046860 14.44° C 43% 1011.3 hPa 0 mm - 678 W/m² -
1777046556 13.89° C 41% 1011.2 hPa 0 mm - 674 W/m² -
1777046252 13.89° C 40% 1011.1 hPa 0 mm - 671 W/m² -
1777045948 13.33° C 40% 1011.3 hPa 0 mm - 667 W/m² -
1777045644 13.33° C 39% 1011.8 hPa 0 mm - 662 W/m² -
1777045341 12.78° C 43% 1011.7 hPa 0 mm - 657 W/m² -
1777045036 12.78° C 43% 1011.5 hPa 0 mm - 651 W/m² -
1777044731 12.78° C 42% 1011.6 hPa 0 mm - 646 W/m² -
1777044429 12.78° C 45% 1011.6 hPa 0 mm - 640 W/m² -
1777044123 12.78° C 41% 1011.7 hPa 0 mm - 632 W/m² -
1777043820 13.33° C 40% 1011.9 hPa 0 mm - 627 W/m² -
1777043516 12.22° C 42% 1011.5 hPa 0 mm - 619 W/m² -
1777043213 12.78° C 42% 1011.7 hPa 0 mm - 613 W/m² -
1777042908 12.78° C 41% 1011.5 hPa 0 mm - 602 W/m² -
1777042604 11.67° C 42% 1011.8 hPa 0 mm - 593 W/m² -
1777042299 11.67° C 41% 1011.8 hPa 0 mm - 379 W/m² -
1777041996 11.67° C 42% 1011.8 hPa 0 mm - 568 W/m² -
1777041693 11.11° C 43% 1012 hPa 0 mm - 422 W/m² -
1777041389 11.11° C 44% 1012 hPa 0 mm - 366 W/m² -
1777041086 11.11° C 43% 1012.2 hPa 0 mm - 236 W/m² -
1777040782 10° C 43% 1012.5 hPa 0 mm - 396 W/m² -
1777040481 10.56° C 44% 1012.1 hPa 0 mm - 338 W/m² -
1777040176 10.56° C 45% 1012.4 hPa 0 mm - 215 W/m² -
1777039873 10° C 46% 1012.3 hPa 0 mm - 234 W/m² -
1777039581 10° C 45% 1012.4 hPa 0 mm - 136 W/m² -

* Rain latest hour (hover to see other rain measurements)
** Current wind speed in m/s (hover to see current wind gust speed)